Location: Sommers-Bausch Observatory
(40.0037°N, 105.2635°W)
Time: 20:57:42
(UTC-07:00)

Amateur Radio Satellites - All Passes

Search period start: 05 March 2015 20:27
Search period end: 06 March 2015 20:27
Location: Sommers-Bausch Observatory, 40.0037°N, 105.2635°W

Satellite Date Start Highest point End Downlink Frequencies (MHz)
Time Altitude Azimuth
AAUSAT CUBESAT 2 05 Mar 20:37:42 20:41:48 66° 259° (W) 20:45:56 437.432
GONETS M04 05 Mar 20:38:30 20:46:11 39° 87° (E) 20:54:04
UWE-3 05 Mar 20:40:57 20:45:00 37° 72° (ENE) 20:49:00 435.000/436.395/437.385
COMPASS 1 05 Mar 20:43:11 20:47:12 48° 261° (W) 20:51:15 437.405
PCSat 05 Mar 20:44:29 20:49:32 38° 307° (NW) 20:54:34 145.827
50 SAT 05 Mar 20:48:46 20:50:22 12° 66° (ENE) 20:52:08 437.505
Oscar 11 05 Mar 20:55:16 20:59:35 89° 281° (W) 21:03:54 145.826/435.025
SEEDS 05 Mar 21:17:15 21:20:06 17° 268° (W) 21:22:49 437.485
VERMONT LUNAR 05 Mar 21:23:01 21:25:44 21° 209° (SSW) 21:28:22 437.305
HO-68 05 Mar 21:24:20 21:29:59 24° 268° (W) 21:35:24 435.675
DELFI C3 05 Mar 21:24:53 21:28:48 49° 261° (W) 21:32:45 145.870
DX 1 05 Mar 21:25:26 21:29:51 86° 257° (WSW) 21:34:16 434.975-435.025
CUBEBUG 2 05 Mar 21:25:28 21:29:53 56° 260° (W) 21:34:11 437.445
HUMSAT D 05 Mar 21:25:43 21:29:44 49° 74° (ENE) 21:33:46 437.325/437.525
CANX-2 05 Mar 21:28:22 21:29:14 10° 272° (W) 21:29:50 2200.000
CINEMA 3 05 Mar 21:28:33 21:32:46 30° 264° (W) 21:36:46 145.822/145.860
GOMX 1 05 Mar 21:29:45 21:32:44 14° 271° (W) 21:35:22 467.674
ANTELSAT 05 Mar 21:33:34 21:35:33 13° 90° (E) 21:37:47 437.575/2403.000
CUBEBUG 1 05 Mar 21:37:18 21:40:39 22° 68° (ENE) 21:44:07 437.445
AISAT 05 Mar 21:44:45 21:49:12 62° 74° (ENE) 21:53:40 437.250
FUNcube-1 05 Mar 21:47:29 21:51:41 47° 261° (W) 21:55:48 145.935
DOVE 4 05 Mar 21:48:51 21:51:03 12° 271° (W) 21:52:55 437.250
ZACube-1 05 Mar 21:50:06 21:54:16 43° 261° (W) 21:58:21 437.345
UKube-1 05 Mar 21:50:47 21:54:59 46° 261° (W) 21:59:11 .
PHONESAT 2.4 05 Mar 21:51:34 21:54:41 27° 207° (SSW) 21:57:46 2401.200-2431.200
VELOX 1 05 Mar 21:52:33 21:57:01 74° 75° (ENE) 22:01:30 145.980
QB50P1 05 Mar 22:07:48 22:10:29 17° 92° (E) 22:13:18 145.935-145.965
QB50P2 05 Mar 22:12:38 22:15:40 19° 93° (E) 22:18:48 145.880/145.840
RS-15 05 Mar 22:13:59 22:24:29 59° 114° (ESE) 22:35:12 29.354- 29.394
UWE-3 05 Mar 22:18:36 22:21:43 18° 268° (W) 22:24:39 435.000/436.395/437.385
50 SAT 05 Mar 22:21:08 22:25:00 50° 260° (W) 22:28:51 437.505
ESTCUBE 1 05 Mar 22:21:23 22:25:52 71° 76° (ENE) 22:30:26 437.505/2401.250
DUCHIFAT 1 05 Mar 22:24:13 22:27:42 25° 95° (E) 22:31:12 145.980
UNISAT 6 05 Mar 22:29:30 22:33:46 57° 100° (E) 22:38:05 437.425
GONETS M04 05 Mar 22:34:45 22:42:58 45° 287° (WNW) 22:51:09
POPSAT HIP 1 05 Mar 22:46:54 22:50:59 47° 99° (E) 22:55:03 437.405
POLYITAN 1 05 Mar 22:48:12 22:52:18 49° 99° (E) 22:56:24 437.675
TIGRISAT 05 Mar 22:52:49 22:57:08 80° 284° (WNW) 23:01:29 435.000
HUMSAT D 05 Mar 23:03:52 23:05:52 13° 270° (W) 23:07:40 437.325/437.525
ANTELSAT 05 Mar 23:08:32 23:12:44 51° 286° (WNW) 23:16:59 437.575/2403.000
NANOSAT C BR1 05 Mar 23:08:33 23:12:47 86° 102° (ESE) 23:16:59 145.865
CUBEBUG 1 05 Mar 23:12:47 23:16:51 34° 263° (W) 23:20:55 437.445
TISAT 1 05 Mar 23:21:33 23:25:48 66° 74° (ENE) 23:30:03 437.305
DANDE 05 Mar 23:24:00 23:30:29 64° 98° (E) 23:35:20 436.750
AISAT 05 Mar 23:24:30 23:26:19 12° 271° (W) 23:27:51 437.250
SPROUT 05 Mar 23:30:23 23:34:44 88° 259° (W) 23:39:05 437.525
CUSAT 1 05 Mar 23:33:10 23:39:13 86° 280° (W) 23:43:42 437.405
BUGSAT 1 05 Mar 23:34:05 23:38:12 65° 285° (WNW) 23:42:13 437.445
BEESAT 3 05 Mar 23:36:27 23:37:43 11° 39° (NE) 23:39:10 437.485
ITUPSAT 1 05 Mar 23:40:27 23:43:33 18° 65° (ENE) 23:46:50 437.325
QB50P1 05 Mar 23:42:38 23:46:35 38° 288° (WNW) 23:50:28 145.935-145.965
QB50P2 05 Mar 23:47:53 23:51:42 33° 289° (WNW) 23:55:28 145.880/145.840
DUCHIFAT 1 05 Mar 23:59:59 00:03:30 26° 290° (WNW) 00:06:56 145.980
ESTCUBE 1 06 Mar 00:02:34 00:03:23 10° 273° (W) 00:03:52 437.505/2401.250
BEESAT 2 06 Mar 00:04:56 00:07:42 17° 44° (NE) 00:10:32 435.950
UNISAT 6 06 Mar 00:08:03 00:10:11 13° 295° (WNW) 00:12:07 437.425
SO-50 06 Mar 00:11:41 00:15:57 41° 116° (ESE) 00:20:26 436.795
AIST 2 06 Mar 00:23:22 00:24:58 12° 39° (NE) 00:26:43 435.215
POPSAT HIP 1 06 Mar 00:24:05 00:26:32 15° 294° (WNW) 00:28:50 437.405
POLYITAN 1 06 Mar 00:25:33 00:27:52 14° 294° (WNW) 00:30:01 437.675
RS-15 06 Mar 00:27:03 00:37:20 44° 318° (NW) 00:47:44 29.354- 29.394
SWISSCUBE 06 Mar 00:38:37 00:43:22 75° 75° (ENE) 00:48:11 437.505
YUBILEINY 06 Mar 00:42:38 00:45:07 12° 54° (NE) 00:48:19 435.215
BEESAT 06 Mar 00:46:33 00:51:19 83° 74° (ENE) 00:56:07 436.000
DANDE 06 Mar 01:10:16 01:13:53 16° 288° (WNW) 01:16:47 436.750
BEESAT 3 06 Mar 01:12:22 01:16:32 86° 58° (ENE) 01:20:37 437.485
ITUPSAT 1 06 Mar 01:16:28 01:21:07 50° 261° (W) 01:25:48 437.325
Oscar 19 06 Mar 01:33:38 01:38:48 77° 104° (ESE) 01:43:56 437.125/150
STARS 06 Mar 01:34:16 01:38:10 31° 70° (ENE) 01:42:06 437.465
Gurwin Techsat 1B 06 Mar 01:34:49 01:38:30 20° 91° (E) 01:42:23 435.225
KKS-1 06 Mar 01:35:57 01:40:17 51° 73° (ENE) 01:44:39 437.445
ITAMSAT 1 06 Mar 01:40:37 01:45:05 29° 95° (E) 01:49:35 435.822/435.867
BEESAT 2 06 Mar 01:42:10 01:46:13 52° 242° (WSW) 01:50:11 435.950
SO-50 06 Mar 01:52:48 01:56:41 25° 315° (NW) 02:00:38 436.795
AIST 2 06 Mar 02:00:00 02:04:18 87° 53° (NE) 02:08:30 435.215
SWISSCUBE 06 Mar 02:20:35 02:21:54 11° 273° (W) 02:22:53 437.505
AO-7 06 Mar 02:20:50 02:21:17 10° 83° (E) 02:22:36 29.400- 29.500
YUBILEINY 06 Mar 02:35:31 02:44:18 63° 78° (ENE) 02:53:02 435.215
RS-15 06 Mar 02:46:16 02:53:49 20° 350° (N) 03:01:25 29.354- 29.394
AUBIESAT-1 06 Mar 02:50:18 02:52:48 20° 64° (ENE) 02:55:28 437.475
M-CUBED/EXP-1 PRIME 06 Mar 02:51:22 02:54:03 23° 65° (ENE) 02:56:55 437.505
STARS 06 Mar 03:11:08 03:14:42 23° 266° (W) 03:18:09 437.465
Gurwin Techsat 1B 06 Mar 03:13:42 03:18:50 51° 288° (WNW) 03:23:57 435.225
MOZHAYETS 4 06 Mar 03:14:35 03:18:25 28° 69° (ENE) 03:22:21
KKS-1 06 Mar 03:14:47 03:17:18 14° 270° (W) 03:19:37 437.445
Oscar 19 06 Mar 03:15:01 03:17:35 14° 298° (WNW) 03:19:54 437.125/150
ITAMSAT 1 06 Mar 03:19:55 03:24:37 34° 291° (WNW) 03:29:13 435.822/435.867
HORYU 2 06 Mar 03:32:12 03:36:41 74° 102° (ESE) 03:41:08 437.375
JAS-2 06 Mar 03:49:34 03:56:44 43° 96° (E) 04:04:10 435.910
PCSat 06 Mar 03:49:50 03:54:09 24° 47° (NE) 03:58:33 145.827
AO-7 06 Mar 04:07:40 04:15:56 66° 104° (ESE) 04:24:09 29.400- 29.500
AUBIESAT-1 06 Mar 04:25:02 04:27:40 21° 261° (W) 04:30:20 437.475
M-CUBED/EXP-1 PRIME 06 Mar 04:26:42 04:29:04 18° 262° (W) 04:31:25 437.505
YUBILEINY 06 Mar 04:33:25 04:40:33 27° 276° (W) 04:47:23 435.215
PRISM 06 Mar 04:33:29 04:35:34 14° 65° (ENE) 04:37:50 437.425
MOZHAYETS 4 06 Mar 04:51:43 04:55:38 27° 266° (W) 04:59:31
RS-15 06 Mar 05:02:53 05:11:39 25° 25° (NNE) 05:20:57 29.354- 29.394
HORYU 2 06 Mar 05:11:23 05:12:49 11° 297° (WNW) 05:14:01 437.375
CUBESAT XI-V 06 Mar 05:23:36 05:28:07 49° 73° (ENE) 05:32:41 437.345
STRAND 1 06 Mar 05:24:18 05:28:50 33° 69° (ENE) 05:33:29 437.568
PCSat 06 Mar 05:32:39 05:37:55 53° 247° (WSW) 05:43:09 145.827
JAS-2 06 Mar 05:34:41 05:41:42 42° 292° (WNW) 05:48:52 435.910
Cubesat XI-IV 06 Mar 05:36:49 05:41:24 29° 95° (E) 05:46:01 437.490
CUTE-I 06 Mar 05:44:30 05:49:16 33° 96° (E) 05:54:05 437.470
AO-7 06 Mar 06:01:21 06:08:13 29° 302° (WNW) 06:14:52 29.400- 29.500
ISS 06 Mar 06:05:41 06:06:08 10° 129° (SE) 06:06:45 145.825
PRISM 06 Mar 06:06:40 06:10:42 50° 261° (W) 06:14:47 437.425
AIST 1 06 Mar 06:14:29 06:18:37 44° 93° (E) 06:22:50
GONETS M04 06 Mar 06:49:59 06:55:23 18° 60° (ENE) 07:01:16
CUBESAT XI-V 06 Mar 07:02:51 07:05:54 16° 270° (W) 07:08:45 437.345
STRAND 1 06 Mar 07:03:38 07:08:05 28° 265° (W) 07:12:28 437.568
RS-15 06 Mar 07:15:23 07:26:47 68° 53° (NE) 07:38:43 29.354- 29.394
Cubesat XI-IV 06 Mar 07:16:41 07:21:34 35° 291° (WNW) 07:26:21 437.490
CUTE-I 06 Mar 07:24:38 07:29:19 31° 292° (WNW) 07:33:54 437.470
CANX-2 06 Mar 07:37:05 07:38:16 11° 88° (E) 07:39:43 2200.000
ISS 06 Mar 07:38:58 07:42:11 78° 321° (NW) 07:45:25 145.825
GOMX 1 06 Mar 07:53:15 07:55:57 17° 91° (E) 07:58:45 467.674
CUTE 1.7 + AOD 2 06 Mar 07:53:50 07:56:28 16° 91° (E) 07:59:15 437.475
AIST 1 06 Mar 07:53:57 07:56:37 15° 291° (WNW) 07:59:07
BRITE-PL 06 Mar 08:07:50 08:11:58 39° 97° (E) 08:15:55 437.365/2234.400
DOVE 4 06 Mar 08:09:09 08:11:50 17° 91° (E) 08:14:37 437.250
O/OREOS (USA 219) 06 Mar 08:16:58 08:21:28 63° 109° (ESE) 08:26:01 437.305
AAUSAT CUBESAT 2 06 Mar 08:22:19 08:25:25 20° 93° (E) 08:28:37 437.432
COMPASS 1 06 Mar 08:27:45 08:31:20 27° 95° (E) 08:34:57 437.405
ANTELSAT 06 Mar 08:33:20 08:34:51 12° 65° (ENE) 08:36:34 437.575/2403.000
SO-50 06 Mar 08:43:37 08:48:08 35° 49° (NE) 08:52:39 436.795
Oscar 11 06 Mar 08:44:24 08:47:13 17° 91° (E) 08:50:10 145.826/435.025
GONETS M04 06 Mar 08:44:55 08:53:44 89° 85° (E) 09:02:34
HO-68 06 Mar 08:50:27 08:57:38 69° 103° (ESE) 09:04:48 435.675
SEEDS 06 Mar 09:00:40 09:04:55 81° 101° (ESE) 09:09:10 437.485
QB50P1 06 Mar 09:01:12 09:03:07 13° 65° (ENE) 09:05:14 145.935-145.965
DELFI C3 06 Mar 09:05:56 09:09:10 23° 94° (E) 09:12:28 145.870
QB50P2 06 Mar 09:06:00 09:08:23 15° 66° (ENE) 09:10:56 145.880/145.840
CANX-2 06 Mar 09:10:28 09:14:40 59° 285° (WNW) 09:18:52 2200.000
DX 1 06 Mar 09:15:45 09:18:32 17° 92° (E) 09:21:27 434.975-435.025
DUCHIFAT 1 06 Mar 09:16:48 09:19:46 19° 68° (ENE) 09:22:50 145.980
ISS 06 Mar 09:16:53 09:19:04 16° 342° (NNW) 09:21:12 145.825
CUBEBUG 2 06 Mar 09:17:37 09:21:13 28° 96° (E) 09:24:54 437.445
CINEMA 3 06 Mar 09:23:41 09:27:48 64° 101° (E) 09:31:56 145.822/145.860
UNISAT 6 06 Mar 09:28:04 09:32:14 46° 73° (ENE) 09:36:23 437.425
RS-15 06 Mar 09:28:34 09:38:40 35° 252° (WSW) 09:48:46 29.354- 29.394
CUTE 1.7 + AOD 2 06 Mar 09:28:37 09:32:38 40° 287° (WNW) 09:36:37 437.475
GOMX 1 06 Mar 09:30:24 09:34:21 36° 289° (WNW) 09:38:10 467.674
FUNcube-1 06 Mar 09:36:44 09:40:26 31° 96° (E) 09:44:12 145.935
AISAT 06 Mar 09:38:31 09:40:14 12° 89° (E) 09:42:12 437.250
POPSAT HIP 1 06 Mar 09:39:17 09:43:07 33° 71° (ENE) 09:47:00 437.405
UKube-1 06 Mar 09:39:20 09:43:07 29° 96° (E) 09:46:55 .
ZACube-1 06 Mar 09:39:27 09:43:14 34° 97° (E) 09:47:05 437.345
POLYITAN 1 06 Mar 09:40:49 09:44:42 35° 71° (ENE) 09:48:38 437.675
VELOX 1 06 Mar 09:45:31 09:47:53 15° 90° (E) 09:50:27 145.980
DOVE 4 06 Mar 09:45:58 09:49:51 35° 288° (WNW) 09:53:36 437.250
BRITE-PL 06 Mar 09:47:14 09:50:14 17° 294° (WNW) 09:52:59 437.365/2234.400
TIGRISAT 06 Mar 09:50:55 09:55:18 83° 78° (ENE) 09:59:37 435.000
AAUSAT CUBESAT 2 06 Mar 09:57:24 10:01:09 31° 289° (WNW) 10:04:51 437.432
O/OREOS (USA 219) 06 Mar 09:58:49 10:01:25 14° 308° (NW) 10:03:51 437.305
NANOSAT C BR1 06 Mar 10:00:24 10:04:36 58° 74° (ENE) 10:08:49 145.865
50 SAT 06 Mar 10:00:51 10:03:46 20° 93° (E) 10:06:48 437.505
COMPASS 1 06 Mar 10:03:31 10:06:58 24° 290° (WNW) 10:10:20 437.405
ANTELSAT 06 Mar 10:06:53 10:11:14 63° 259° (W) 10:15:30 437.575/2403.000
UWE-3 06 Mar 10:07:35 10:11:46 88° 284° (WNW) 10:15:58 435.000/436.395/437.385
DANDE 06 Mar 10:07:43 10:09:50 22° 75° (ENE) 10:12:04 436.750
CUSAT 1 06 Mar 10:12:58 10:15:28 42° 79° (ENE) 10:18:12 437.405
ESTCUBE 1 06 Mar 10:16:12 10:18:55 16° 91° (E) 10:21:48 437.505/2401.250
Oscar 11 06 Mar 10:19:33 10:23:37 39° 288° (WNW) 10:27:38 145.826/435.025
BUGSAT 1 06 Mar 10:23:06 10:27:22 79° 76° (ENE) 10:31:39 437.445
SO-50 06 Mar 10:24:17 10:28:39 31° 246° (WSW) 10:32:54 436.795
QB50P1 06 Mar 10:34:23 10:38:36 56° 260° (W) 10:42:49 145.935-145.965
HO-68 06 Mar 10:39:16 10:44:48 24° 300° (WNW) 10:50:07 435.675
QB50P2 06 Mar 10:39:48 10:43:57 47° 261° (W) 10:48:06 145.880/145.840
DELFI C3 06 Mar 10:40:53 10:44:22 27° 290° (WNW) 10:47:48 145.870
GONETS M04 06 Mar 10:44:04 10:49:33 18° 280° (W) 10:54:31
HUMSAT D 06 Mar 10:46:08 10:50:15 76° 284° (WNW) 10:54:23 437.325/437.525
DX 1 06 Mar 10:50:54 10:55:01 40° 288° (WNW) 10:59:05 434.975-435.025
DUCHIFAT 1 06 Mar 10:51:25 10:55:23 36° 262° (W) 10:59:21 145.980
CUBEBUG 2 06 Mar 10:54:35 10:57:51 22° 291° (WNW) 11:01:01 437.445
ISS 06 Mar 10:55:43 10:56:32 11° 2° (N) 10:57:22 145.825
CUBEBUG 1 06 Mar 11:02:09 11:06:23 44° 99° (E) 11:10:34 437.445
CINEMA 3 06 Mar 11:03:33 11:04:34 11° 296° (WNW) 11:05:22 145.822/145.860
UNISAT 6 06 Mar 11:06:47 11:09:20 15° 269° (W) 11:11:41 437.425
TISAT 1 06 Mar 11:09:45 11:10:38 11° 88° (E) 11:11:47 437.305
AISAT 06 Mar 11:12:57 11:17:19 57° 286° (WNW) 11:21:38 437.250
FUNcube-1 06 Mar 11:13:31 11:16:39 20° 291° (WNW) 11:19:42 145.935
Oscar 19 06 Mar 11:14:05 11:16:12 13° 62° (ENE) 11:18:36 437.125/150
UKube-1 06 Mar 11:15:39 11:19:10 24° 292° (WNW) 11:22:36 .
POPSAT HIP 1 06 Mar 11:15:53 11:19:07 20° 267° (W) 11:22:15 437.405
ZACube-1 06 Mar 11:16:27 11:19:26 19° 292° (WNW) 11:22:20 437.345
POLYITAN 1 06 Mar 11:17:39 11:20:47 19° 267° (W) 11:23:47 437.675
SPROUT 06 Mar 11:19:04 11:21:47 17° 91° (E) 11:24:37 437.525
VELOX 1 06 Mar 11:20:31 11:24:49 49° 287° (WNW) 11:29:04 145.980
50 SAT 06 Mar 11:35:23 11:38:49 28° 289° (WNW) 11:42:12 437.505
NANOSAT C BR1 06 Mar 11:39:20 11:40:55 11° 271° (W) 11:42:14 145.865
ESTCUBE 1 06 Mar 11:51:43 11:56:07 47° 287° (WNW) 12:00:27 437.505/2401.250
ISS 06 Mar 12:31:28 12:33:56 20° 22° (NNE) 12:36:25 145.825
CUBEBUG 1 06 Mar 12:39:33 12:42:26 17° 294° (WNW) 12:45:08 437.445
SWISSCUBE 06 Mar 12:40:37 12:44:06 20° 92° (E) 12:47:43 437.505
TISAT 1 06 Mar 12:42:46 12:46:56 59° 286° (WNW) 12:51:03 437.305
BEESAT 06 Mar 12:48:17 12:51:59 22° 93° (E) 12:55:47 436.000
Oscar 19 06 Mar 12:49:50 12:54:58 80° 256° (WSW) 13:00:08 437.125/150
SPROUT 06 Mar 12:54:04 12:58:06 39° 288° (WNW) 13:02:04 437.525
Gurwin Techsat 1B 06 Mar 12:55:05 12:59:34 30° 68° (ENE) 13:04:10 435.225
ITAMSAT 1 06 Mar 12:57:48 13:02:39 41° 70° (ENE) 13:07:35 435.822/435.867
AO-7 06 Mar 13:17:02 13:22:09 19° 52° (NE) 13:27:38 29.400- 29.500
ITUPSAT 1 06 Mar 13:17:44 13:22:20 44° 98° (E) 13:26:57 437.325
KKS-1 06 Mar 13:31:12 13:31:24 10° 88° (E) 13:31:54 437.445
YUBILEINY 06 Mar 13:45:21 13:48:16 13° 77° (ENE) 13:51:56 435.215
JAS-2 06 Mar 14:04:31 14:07:26 15° 57° (ENE) 14:10:49 435.910
ISS 06 Mar 14:07:25 14:10:39 68° 220° (SW) 14:13:52 145.825
SWISSCUBE 06 Mar 14:17:40 14:22:11 41° 289° (WNW) 14:26:40 437.505
BEESAT 06 Mar 14:25:32 14:29:59 37° 290° (WNW) 14:34:21 436.000
HORYU 2 06 Mar 14:29:53 14:34:15 62° 74° (ENE) 14:38:39 437.375
Gurwin Techsat 1B 06 Mar 14:34:39 14:39:29 34° 264° (W) 14:44:17 435.225
ITAMSAT 1 06 Mar 14:38:10 14:42:22 23° 267° (W) 14:46:27 435.822/435.867
ITUPSAT 1 06 Mar 14:56:25 14:59:59 20° 294° (WNW) 15:03:23 437.325
STARS 06 Mar 15:00:34 15:04:57 69° 101° (ESE) 15:09:18 437.465
KKS-1 06 Mar 15:04:12 15:08:38 69° 285° (WNW) 15:13:01 437.445
AO-7 06 Mar 15:05:33 15:13:53 82° 71° (ENE) 15:22:15 29.400- 29.500
BEESAT 3 06 Mar 15:06:34 15:09:22 19° 112° (ESE) 15:12:20 437.485
YUBILEINY 06 Mar 15:35:04 15:43:44 74° 94° (E) 15:52:32 435.215
BEESAT 2 06 Mar 15:36:01 15:39:42 33° 115° (ESE) 15:43:29 435.950
VERMONT LUNAR 06 Mar 15:43:17 15:46:36 42° 158° (SSE) 15:49:55 437.305
JAS-2 06 Mar 15:45:59 15:51:34 87° 256° (WSW) 15:57:57 435.910
AIST 2 06 Mar 15:58:19 16:01:32 22° 112° (ESE) 16:04:54 435.215
AUBIESAT-1 06 Mar 16:05:19 16:08:56 24° 100° (E) 16:12:47 437.475
M-CUBED/EXP-1 PRIME 06 Mar 16:06:56 16:10:46 28° 101° (E) 16:14:50 437.505
HORYU 2 06 Mar 16:09:49 16:11:25 11° 271° (W) 16:12:45 437.375
PHONESAT 2.4 06 Mar 16:18:26 16:21:50 39° 157° (SSE) 16:25:16 2401.200-2431.200
AIST 1 06 Mar 16:24:38 16:25:51 11° 66° (ENE) 16:27:19
STARS 06 Mar 16:39:21 16:40:55 11° 297° (WNW) 16:42:15 437.465
BEESAT 3 06 Mar 16:43:21 16:47:13 39° 308° (NW) 16:51:08 437.485
MOZHAYETS 4 06 Mar 16:46:36 16:51:16 74° 102° (ESE) 16:55:54
O/OREOS (USA 219) 06 Mar 16:50:18 16:52:09 12° 51° (NE) 16:54:12 437.305
Cubesat XI-IV 06 Mar 16:58:03 17:03:06 45° 71° (ENE) 17:08:14 437.490
AO-7 06 Mar 17:01:43 17:07:43 20° 270° (W) 17:13:17 29.400- 29.500
CUTE-I 06 Mar 17:05:34 17:10:44 51° 72° (ENE) 17:15:58 437.470
BEESAT 2 06 Mar 17:14:31 17:17:57 24° 313° (NW) 17:21:21 435.950
VERMONT LUNAR 06 Mar 17:20:53 17:24:23 84° 354° (N) 17:27:53 437.305
CUBESAT XI-V 06 Mar 17:22:55 17:24:59 13° 88° (E) 17:27:16 437.345
YUBILEINY 06 Mar 17:34:45 17:41:36 24° 296° (WNW) 17:48:11 435.215
AIST 2 06 Mar 17:36:00 17:39:58 36° 309° (NW) 17:43:57 435.215
JAS-2 06 Mar 17:36:55 17:38:04 10° 279° (W) 17:38:45 435.910
STRAND 1 06 Mar 17:37:50 17:39:09 11° 87° (E) 17:40:49 437.568
AUBIESAT-1 06 Mar 17:39:49 17:43:48 34° 293° (WNW) 17:47:57 437.475
M-CUBED/EXP-1 PRIME 06 Mar 17:41:48 17:45:37 29° 294° (WNW) 17:49:36 437.505
PRISM 06 Mar 17:50:29 17:53:51 23° 94° (E) 17:57:17 437.425
PHONESAT 2.4 06 Mar 17:56:30 18:00:09 87° 345° (NNW) 18:03:48 2401.200-2431.200
AIST 1 06 Mar 17:59:42 18:04:05 62° 265° (W) 18:08:23
MOZHAYETS 4 06 Mar 18:26:07 18:27:58 12° 296° (WNW) 18:29:33
O/OREOS (USA 219) 06 Mar 18:27:38 18:32:14 76° 250° (WSW) 18:36:47 437.305
PCSat 06 Mar 18:31:40 18:35:38 22° 108° (ESE) 18:39:47 145.827
Cubesat XI-IV 06 Mar 18:39:12 18:43:27 23° 267° (W) 18:47:35 437.490
CUTE-I 06 Mar 18:47:16 18:51:11 20° 269° (W) 18:54:56 437.470
CUTE 1.7 + AOD 2 06 Mar 18:47:53 18:49:15 12° 65° (ENE) 18:50:50 437.475
CUBESAT XI-V 06 Mar 18:58:15 19:02:56 61° 285° (WNW) 19:07:31 437.345
VERMONT LUNAR 06 Mar 18:58:49 19:02:19 82° 194° (SSW) 19:05:49 437.305
GOMX 1 06 Mar 18:59:58 19:03:59 23° 69° (ENE) 19:07:57 467.674
DOVE 4 06 Mar 19:13:48 19:17:26 21° 68° (ENE) 19:21:05 437.250
STRAND 1 06 Mar 19:13:56 19:19:06 80° 284° (WNW) 19:24:13 437.568
AAUSAT CUBESAT 2 06 Mar 19:14:07 19:16:05 14° 66° (ENE) 19:18:15 437.432
BRITE-PL 06 Mar 19:16:42 19:22:03 49° 73° (ENE) 19:27:10 437.365/2234.400
HO-68 06 Mar 19:18:08 19:24:52 48° 67° (ENE) 19:31:43 435.675
COMPASS 1 06 Mar 19:19:28 19:22:13 18° 68° (ENE) 19:25:07 437.405
PRISM 06 Mar 19:25:42 19:29:22 28° 290° (WNW) 19:32:58 437.425
PHONESAT 2.4 06 Mar 19:35:00 19:38:39 86° 191° (S) 19:42:18 2401.200-2431.200
Oscar 11 06 Mar 19:39:50 19:41:48 13° 65° (ENE) 19:43:58 145.826/435.025
GONETS M04 06 Mar 19:51:47 19:57:23 20° 81° (E) 20:03:26
SEEDS 06 Mar 19:52:11 19:56:14 50° 74° (ENE) 20:00:19 437.485
DELFI C3 06 Mar 19:54:41 19:56:42 14° 66° (ENE) 19:58:53 145.870
CANX-2 06 Mar 20:02:35 20:06:48 90° 81° (E) 20:11:03 2200.000
DX 1 06 Mar 20:11:31 20:13:57 15° 65° (ENE) 20:16:34 434.975-435.025
PCSat 06 Mar 20:13:29 20:18:45 50° 304° (WNW) 20:24:02 145.827
CUBEBUG 2 06 Mar 20:15:40 20:19:12 24° 70° (ENE) 20:22:45 437.445
